TimeEST,TemperatureF,Dew PointF,Humidity,Sea Level PressureIn,VisibilityMPH,Wind Direction,Wind SpeedMPH,Gust SpeedMPH,PrecipitationIn,Events,Conditions,WindDirDegrees,DateUTC
12:15 AM,17.6,12.2,79,30.09,7.0,WSW,8.1,-,N/A,,Overcast,240,2013-02-21 05:15:00
12:35 AM,17.6,12.2,79,30.09,7.0,West,10.4,-,N/A,,Overcast,260,2013-02-21 05:35:00
12:55 AM,17.6,12.2,79,30.09,7.0,WSW,10.4,-,N/A,,Overcast,240,2013-02-21 05:55:00
1:15 AM,17.6,12.2,79,30.09,9.0,West,10.4,-,N/A,,Overcast,260,2013-02-21 06:15:00
1:35 AM,17.6,12.2,79,30.09,5.0,WSW,9.2,16.1,N/A,,Overcast,250,2013-02-21 06:35:00
1:55 AM,17.6,12.2,79,30.08,8.0,WSW,9.2,-,N/A,,Overcast,250,2013-02-21 06:55:00
2:15 AM,17.6,12.2,79,30.08,7.0,West,9.2,-,N/A,,Overcast,260,2013-02-21 07:15:00
2:35 AM,17.6,12.2,79,30.08,7.0,WSW,10.4,-,N/A,,Overcast,250,2013-02-21 07:35:00
2:55 AM,17.6,12.2,79,30.09,9.0,West,8.1,-,N/A,,Overcast,260,2013-02-21 07:55:00
3:15 AM,17.6,12.2,79,30.09,5.0,West,10.4,-,N/A,,Overcast,270,2013-02-21 08:15:00
3:35 AM,17.6,12.2,79,30.09,6.0,West,9.2,-,N/A,,Overcast,260,2013-02-21 08:35:00
3:55 AM,17.6,12.2,79,30.10,5.0,West,9.2,-,N/A,,Overcast,270,2013-02-21 08:55:00
4:15 AM,17.6,12.2,79,30.10,5.0,West,9.2,-,N/A,,Overcast,280,2013-02-21 09:15:00
4:35 AM,17.6,12.2,79,30.10,5.0,WNW,9.2,20.7,N/A,,Overcast,290,2013-02-21 09:35:00
4:55 AM,17.6,10.4,73,30.10,8.0,WNW,10.4,19.6,N/A,,Overcast,300,2013-02-21 09:55:00
5:15 AM,17.6,8.6,68,30.11,10.0,NW,6.9,-,N/A,,Overcast,310,2013-02-21 10:15:00
5:35 AM,15.8,8.6,73,30.12,9.0,WNW,9.2,17.3,N/A,,Overcast,300,2013-02-21 10:35:00
6:15 AM,15.8,8.6,73,30.14,10.0,WNW,12.7,20.7,N/A,,Overcast,300,2013-02-21 11:15:00
6:55 AM,15.8,10.4,79,30.15,10.0,WNW,8.1,19.6,N/A,,Overcast,290,2013-02-21 11:55:00
7:15 AM,15.8,10.4,79,30.17,10.0,NW,11.5,19.6,N/A,,Overcast,310,2013-02-21 12:15:00
7:35 AM,15.8,10.4,79,30.17,9.0,WNW,5.8,-,N/A,,Overcast,300,2013-02-21 12:35:00
7:55 AM,15.8,8.6,73,30.18,10.0,WNW,9.2,-,N/A,,Overcast,290,2013-02-21 12:55:00
8:15 AM,15.8,10.4,79,30.19,10.0,WNW,8.1,-,N/A,,Overcast,290,2013-02-21 13:15:00
8:35 AM,15.8,10.4,79,30.20,7.0,West,6.9,-,N/A,,Overcast,280,2013-02-21 13:35:00
8:55 AM,15.8,10.4,79,30.21,5.0,NW,6.9,-,N/A,,Overcast,310,2013-02-21 13:55:00
9:15 AM,17.6,10.4,73,30.22,5.0,West,11.5,17.3,N/A,,Overcast,280,2013-02-21 14:15:00
9:35 AM,17.6,10.4,73,30.22,5.0,WNW,10.4,16.1,N/A,,Overcast,290,2013-02-21 14:35:00
9:55 AM,17.6,10.4,73,30.22,5.0,West,10.4,-,N/A,,Overcast,280,2013-02-21 14:55:00
10:15 AM,17.6,10.4,73,30.21,5.0,NW,10.4,17.3,N/A,,Overcast,310,2013-02-21 15:15:00
10:35 AM,17.6,10.4,73,30.21,8.0,NW,9.2,-,N/A,,Overcast,320,2013-02-21 15:35:00
10:55 AM,17.6,10.4,73,30.21,7.0,WNW,9.2,-,N/A,,Overcast,300,2013-02-21 15:55:00
11:15 AM,17.6,10.4,73,30.22,10.0,WNW,8.1,-,N/A,,Overcast,300,2013-02-21 16:15:00
11:35 AM,17.6,10.4,73,30.23,8.0,WNW,9.2,18.4,N/A,,Overcast,300,2013-02-21 16:35:00
11:55 AM,17.6,10.4,73,30.22,8.0,NW,8.1,-,N/A,,Overcast,310,2013-02-21 16:55:00
12:15 PM,19.4,12.2,74,30.23,7.0,NW,5.8,-,N/A,,Overcast,320,2013-02-21 17:15:00
12:35 PM,19.4,12.2,74,30.24,9.0,West,8.1,-,N/A,,Overcast,280,2013-02-21 17:35:00
12:55 PM,19.4,10.4,68,30.23,8.0,WNW,8.1,-,N/A,,Overcast,290,2013-02-21 17:55:00
1:15 PM,19.4,10.4,68,30.23,9.0,NW,10.4,-,N/A,,Overcast,320,2013-02-21 18:15:00
1:35 PM,19.4,12.2,74,30.22,5.0,NW,4.6,-,N/A,,Overcast,310,2013-02-21 18:35:00
1:55 PM,19.4,12.2,74,30.23,10.0,NW,8.1,-,N/A,,Overcast,320,2013-02-21 18:55:00
2:15 PM,19.4,10.4,68,30.23,10.0,WNW,8.1,-,N/A,,Overcast,300,2013-02-21 19:15:00
2:35 PM,19.4,10.4,68,30.24,10.0,WNW,5.8,-,N/A,,Overcast,300,2013-02-21 19:35:00
2:55 PM,21.2,12.2,68,30.24,10.0,NW,9.2,-,N/A,,Overcast,320,2013-02-21 19:55:00
3:15 PM,21.2,12.2,68,30.24,10.0,West,8.1,-,N/A,,Overcast,260,2013-02-21 20:15:00
3:35 PM,21.2,12.2,68,30.23,10.0,NW,9.2,-,N/A,,Overcast,310,2013-02-21 20:35:00
3:55 PM,21.2,10.4,63,30.24,10.0,NNW,6.9,-,N/A,,Mostly Cloudy,340,2013-02-21 20:55:00
4:15 PM,21.2,12.2,68,30.23,10.0,NNW,6.9,-,N/A,,Scattered Clouds,330,2013-02-21 21:15:00
4:35 PM,19.4,10.4,68,30.21,10.0,NNW,8.1,-,N/A,,Partly Cloudy,340,2013-02-21 21:35:00
4:55 PM,21.2,12.2,68,30.23,10.0,West,6.9,-,N/A,,Scattered Clouds,280,2013-02-21 21:55:00
5:15 PM,21.2,10.4,63,30.24,10.0,WNW,4.6,-,N/A,,Mostly Cloudy,300,2013-02-21 22:15:00
5:35 PM,19.4,10.4,68,30.25,10.0,West,4.6,-,N/A,,Partly Cloudy,280,2013-02-21 22:35:00
5:55 PM,17.6,10.4,73,30.28,10.0,West,5.8,-,N/A,,Clear,270,2013-02-21 22:55:00
6:15 PM,17.6,10.4,73,30.29,10.0,WNW,3.5,-,N/A,,Clear,300,2013-02-21 23:15:00
6:35 PM,17.6,10.4,73,30.30,10.0,NW,3.5,-,N/A,,Clear,310,2013-02-21 23:35:00
6:55 PM,17.6,10.4,73,30.29,10.0,Calm,Calm,-,N/A,,Clear,0,2013-02-21 23:55:00
7:15 PM,15.8,10.4,79,30.29,10.0,Calm,Calm,-,N/A,,Clear,0,2013-02-22 00:15:00
7:35 PM,15.8,10.4,79,30.28,10.0,Calm,Calm,-,N/A,,Clear,0,2013-02-22 00:35:00
7:55 PM,15.8,8.6,73,30.28,10.0,Calm,Calm,-,N/A,,Clear,0,2013-02-22 00:55:00
8:15 PM,15.8,8.6,73,30.28,10.0,Calm,Calm,-,N/A,,Clear,0,2013-02-22 01:15:00
8:35 PM,14.0,8.6,79,30.29,10.0,Calm,Calm,-,N/A,,Clear,0,2013-02-22 01:35:00
8:55 PM,14.0,8.6,79,30.29,10.0,Calm,Calm,-,N/A,,Clear,0,2013-02-22 01:55:00
9:15 PM,15.8,10.4,79,30.28,10.0,NNE,5.8,-,N/A,,Clear,20,2013-02-22 02:15:00
9:35 PM,15.8,10.4,79,30.27,10.0,NE,4.6,-,N/A,,Clear,40,2013-02-22 02:35:00
9:55 PM,15.8,10.4,79,30.27,10.0,NE,4.6,-,N/A,,Clear,40,2013-02-22 02:55:00
10:15 PM,14.0,8.6,79,30.27,10.0,NE,4.6,-,N/A,,Clear,50,2013-02-22 03:15:00
10:35 PM,14.0,8.6,79,30.26,10.0,NE,5.8,-,N/A,,Clear,50,2013-02-22 03:35:00
10:55 PM,14.0,8.6,79,30.25,10.0,NE,4.6,-,N/A,,Clear,40,2013-02-22 03:55:00
11:15 PM,12.2,10.4,92,30.24,10.0,NE,6.9,-,N/A,,Clear,50,2013-02-22 04:15:00
11:35 PM,12.2,10.4,92,30.24,10.0,NE,6.9,-,N/A,,Clear,40,2013-02-22 04:35:00
11:55 PM,12.2,10.4,92,30.24,10.0,ENE,5.8,-,N/A,,Clear,60,2013-02-22 04:55:00